星链-2518 (STARLINK-2518 )

导读 | 豆包AI

STARLINK-2518是美国SpaceX公司星链计划中的一颗卫星,于2021年4月29日发射升空,属于低轨通信卫星。星链计划旨在构建全球卫星互联网,该卫星与其他数千颗卫星组网,为全球用户提供高速互联网接入服务,补充地面网络覆盖盲区,推动全球互联建设。

基本信息
目录编号:
48333
目录名称:
STARLINK-2518
国际标识:
2021-036BK
轨道中心:
EARTH
卫星名称:
星链-2518
卫星全名:
星链-2518 (STARLINK-2518 )
卫星状态:
在轨 (已飞行1780 天)
发射日期:
2021-04-29 UTC
国别 :
美国 (US)
星等 :
--
轨道信息
数据来源 国际轨道数据
星历时间: 2026-03-14T15:13:01+0800
9小时前
查看轨道信息
半长轴: 6855.785km
偏心率: 0.0001246
轨道倾角: 53.155°
近地点辐角 89.009°
升交点赤经 79.477°
平近点角 271.105°
近地点: 476.793km
远地点: 478.503km
周期: 94.155分钟
每日圈数: 15.293856
详细信息
固有亮度:
5
最大亮度:
2.5
卫星平台:
Starlink V1.0
覆盖范围:
全球
运营商:
太空探索技术公司
运营商所在国:
美国
制造商(研发单位):
太空探索技术公司
制造商所在国:
美国
使用方式:
暂无
卫星简介
星链(Starlink)计划是由太空探索技术公司(SpaceX)提出的一个巨型低轨卫星互联网星座项目,计划在2019年至2024年间在太空搭建由约1.2万颗卫星组成的“星链”网络,其中1584颗将部署在地球上空550千米处的近地轨道,并从2020年开始工作。该卫星仍在工作。
2D轨道图
3D轨道图
轨道高度分析图
轨道倾角分析图
轨道综合分析图
查看轨道综合分析图